Regional Weather Roundup
Issued by NWS

Home | Current Version | Previous Version | Text Only | Print | Product List | Glossary On
Versions: 1 2 3 4 5 6 7 8 9 10 11 12 13 14 15 16 17 18 19 20 21 22 23 24 25 26 27 28 29 30 31 32 33 34 35 36 37 38 39 40 41 42 43 44 45 46 47 48 49 50
764
ASUS45 KTFX 200610
RWRMT
MONTANA REGIONAL WEATHER ROUNDUP
NATIONAL WEATHER SERVICE GREAT FALLS MT
1100 PM MST SUN FEB 19 2017

NOTE: "FAIR" INDICATES FEW OR NO CLOUDS BELOW 12000 FEET WITH NO
SIGNIFICANT WEATHER AND/OR OBSTRUCTIONS TO VISIBILITY.

MTZ001>007-043-200700-
WEST OF THE DIVIDE

CITY           SKY/WX    TMP DP  RH WIND       PRES   REMARKS
KALISPELL      PTCLDY    33  28  81 S9        29.70R WCI  25
MISSOULA       CLOUDY    33  33 100 CALM      29.76R
BUTTE          CLEAR     31  19  61 NE3       29.74R
MULLAN PASS    MOCLDY    23  22  96 S6        29.64R FOG     WCI  16
ANACONDA         N/A     34  21  60 S13G21    29.71S WCI  25
DEER LODGE       N/A     34  25  69 SW5       29.73R
EUREKA           N/A     37  30  75 SE10      29.67R WCI  30
HAMILTON         N/A     36  27  69 SE8       29.72S WCI  29
LIBBY            N/A     30  30 100 CALM      29.69R VSB 0
PLAINS           N/A     29  24  81 MISG      29.75R VSB 0
RONAN            N/A     32  27  82 NE1       29.77R
THOMPSON FALLS   N/A     30  29  96 CALM      29.79R
$$

MTZ008-052>055-200700-
SOUTHWEST MONTANA

CITY           SKY/WX    TMP DP  RH WIND       PRES   REMARKS
BOZEMAN        CLEAR     38  24  57 SW10      29.75R WCI  31
DILLON         CLEAR     30  20  66 SW10      29.76R WCI  21
W YELLOWSTONE  CLOUDY    28  25  86 S7        29.85R WCI  21
ENNIS          CLEAR     34  21  60 S16       29.82S WCI  23
THREE FORKS      N/A     39 -55   1 S6        29.76R
TWIN BRIDGES     N/A     34  19  54 SE5       29.79R
$$

MTZ009-010-012-014-046-048-049-054-200700-
EAST SLOPES AND CENTRAL MONTANA

CITY           SKY/WX    TMP DP  RH WIND       PRES   REMARKS
CUT BANK       CLOUDY    33  27  78 W12       29.59R WCI  24
GREAT FALLS    CLEAR     33  28  81 SW13      29.65R WCI  24
MALMSTROM AFB  CLOUDY    31  29  92 S8        29.66R WCI  24
HELENA         CLEAR     32  27  81 SE5       29.71R
AUGUSTA        MOCLDY    33  23  67 W13       29.63R WCI  23
BOWMANS CRNR   MOCLDY    33  25  73 S9        29.65R WCI  25
CHOTEAU          N/A     32  28  86 S9        29.64R WCI  24
CONRAD           N/A     35  29  79 SW5       29.65F
POWER            N/A     34  28  76 SW12G21   29.64R WCI  26
RAYNESFORD     MOCLDY    35  32  88 CALM      29.66R
ULM              N/A     31  28  89 MISG      29.67R
$$

MTZ011-013-016-021-045-047-050-051-200700-
NORTH CENTRAL MONTANA

CITY           SKY/WX    TMP DP  RH WIND       PRES   REMARKS
HAVRE          PTCLDY    28  26  92 W3        29.60R
LEWISTOWN      CLOUDY    33  27  78 SE6       29.64R WCI  28
N BAR RANCH    MOCLDY    36  21  55 VRB6G12   29.67R WCI  31
CHINOOK          N/A     28  27  93 CALM      29.60R
DENTON         MOCLDY    39  28  63 W30G38    29.61R WCI  27
FORT BENTON      N/A     37  32  81 MISG      29.65F
GEYSER         MOCLDY    35  30  80 SW12      29.64R WCI  27
GRASS RANGE    MOCLDY    38  28  67 SW17      29.60R WCI  29
JUDITH GAP     MOCLDY    38  24  59 W7        29.66R
ROY            MOCLDY    41  28  60 MISG      29.60R
STANFORD       MOCLDY    38  31  74 W30G37    29.65R WCI  26
WINIFRED       MOCLDY    38  27  63 SW6       29.62R
$$

MTZ017>020-022>027-061-062-200700-
NORTHEAST MONTANA

CITY           SKY/WX    TMP DP  RH WIND       PRES   REMARKS
GLASGOW        FOG       26  24  92 S9        29.60R VSB<1/4 WCI  17
JORDAN           N/A     34  30  85 NW5       29.62R
SIDNEY         CLOUDY    33  32  96 SW3       29.62S FOG
WOLF POINT     FOG       33  32  96 SW3       29.62R VSB 1/4
PLENTYWOOD       N/A     34  34 100 CALM      29.59S VSB 1
POPLAR           N/A     34  32  93 S5        29.63R VSB 0
SCOBEY           N/A     30  25  82 CALM      29.59R VSB 0
$$

MTZ028>42-056>058-200700-
SOUTHCENTRAL AND SOUTHEAST MONTANA

CITY           SKY/WX    TMP DP  RH WIND       PRES   REMARKS
BAKER          CLOUDY    39  34  82 NW7       29.60R
BILLINGS       MOCLDY    43  28  55 SW10      29.68R
LIVINGSTON     CLOUDY    35  28  75 SW17G24   29.70F WCI  25
MILES CITY     CLOUDY    41  35  79 W10       29.62R
BIG TIMBER     MOCLDY    36  30  80 W17       29.71F WCI  25
EKALAKA          N/A     41  33  73 W6        29.63R
FORSYTH          N/A     43  36  75 CALM      29.63R
HARLOWTON      MOCLDY    34  26  74 CALM      29.68R
LAUREL           N/A     38  20  48 CALM      29.70R
$$

REGIONAL REPORTS...DAKOTAS

CITY           SKY/WX    TMP DP  RH WIND       PRES   REMARKS
WILLISTON      FOG       33  30  88 CALM      29.61R VSB 1/2
MINOT          CLOUDY    33  31  92 W5        29.55R FOG
DICKINSON      CLOUDY    37  34  89 W10       29.54R WCI  30
BEACH            N/A    N/A N/A N/A MISG        N/A
CROSBY         CLOUDY    32  32 100 W8        29.61R FOG     WCI  25
TIOGA          FOG       32  32 100 W13       29.58S VSB 1/2 WCI  22
WATFORD CITY   CLOUDY    32  32 100 W9        29.60R FOG     WCI  24
BISMARCK       CLOUDY    37  34  89 CALM      29.52F
GRAND FORKS    MOCLDY    41  35  79 SE15      29.59F
FARGO          PTCLDY    52  48  86 SE17G28   29.61F
BUFFALO SD       N/A     45  36  70 NW10      29.50R
RAPID CITY     CLOUDY    56  35  45 W7        29.54F
$$

REGIONAL REPORTS...WYOMING/IDAHO/WASHINGTON

CITY           SKY/WX    TMP DP  RH WIND       PRES   REMARKS
GILLETTE       CLOUDY    43  34  70 NW16      29.64R
SHERIDAN       CLOUDY    38  34  85 SW6       29.67R
BUFFALO WY     CLOUDY    40  32  73 CALM      29.68R
CODY           CLOUDY    40  16  37 W12G22    29.73R
YELLOWSTONE LA   N/A     23  20  88 VRB5      29.86R
IDAHO FALLS    CLOUDY    33  31  92 S12       29.89R WCI  24
SALMON         CLOUDY    37  28  70 SW12      29.79R WCI  30
BOISE          MOCLDY    41  34  76 SE12      29.79R
SPOKANE        PTCLDY    34  32  92 S10       29.67R WCI  26
$$

REGIONAL REPORTS...ALBERTA

CITY           SKY/WX    TMP DP  RH WIND       PRES   REMARKS
EDMONTON       CLOUDY    34  30  86 W6        29.52R WCI  29
CALGARY        MOCLDY    28  27  93 S7        29.51S FOG     WCI  21
LETHBRIDGE     MOCLDY    32  27  80 W7        29.55R WCI  26
MEDICINE HAT   CLEAR     30  25  80 SW6       29.54S WCI  24
WATERTON GATE    N/A     32  27  80 SW29G39     N/A  WCI  18
CARDSTON         N/A     34  27  75 W10G20      N/A  WCI  26
MILK RIVER       N/A     32  27  80 W8          N/A  WCI  25
$$

REGIONAL REPORTS...SASKATCHEWAN

CITY           SKY/WX    TMP DP  RH WIND       PRES   REMARKS
SWIFT CURRENT  PTCLDY    34  32  93 SW10      29.53R WCI  26
REGINA         CLOUDY    32  32 100 S6        29.58R WCI  26
SASKATOON      CLOUDY    34  32  93 S10       29.55S WCI  26
CYPRESS HILLS    N/A     32  27  80 SW5         N/A
VAL MARIE        N/A     27  27 100 N1          N/A
ASSINIBOIA       N/A     34  34 100 NW7         N/A  WCI  28
$$




USA.gov is the U.S. government's official web portal to all federal, state and local government web resources and services.